When you browse on this site, cookies collect data to enhance your experience and personalize the content and advertising you see.
Visit our Privacy Policy to learn more. By continuing to use the site, you agree to this use of cookies and data.
  • In Hungary
  • List of Countries
  • For 7 days
  • Water Temperature
  • Weather Map
  • News
  • Weather Widgets
  • user-avatar
    Login

    Hourly Weather Khlibodarivka

    Today, 12 December, Thursday

    Time Temperature Precipitation Wind Pressure Humidity
    00:00 0°C° 0 mm 3 mps 747 mmHg 93%
    01:00 -1°C° 0 mm 3 mps 747 mmHg 94%
    02:00 -1°C° 0 mm 3 mps 747 mmHg 96%
    03:00 -1°C° 0 mm 3 mps 746 mmHg 96%
    04:00 -1°C° 0 mm 3 mps 746 mmHg 96%
    05:00 -2°C° 0 mm 4 mps 746 mmHg 96%
    06:00 -2°C° 0 mm 4 mps 746 mmHg 96%
    07:00 -2°C° 0 mm 4 mps 746 mmHg 95%
    08:00 -2°C° 0 mm 4 mps 746 mmHg 94%
    09:00 -1°C° 0 mm 4 mps 746 mmHg 90%
    10:00 0°C° 0 mm 4 mps 745 mmHg 85%
    11:00 +1°C° 0 mm 5 mps 745 mmHg 81%
    12:00 +1°C° 0 mm 5 mps 745 mmHg 80%
    13:00 +1°C° 0 mm 5 mps 745 mmHg 79%
    14:00 +2°C° 0 mm 5 mps 745 mmHg 78%
    15:00 +1°C° 0 mm 5 mps 744 mmHg 82%
    16:00 +1°C° 0 mm 5 mps 744 mmHg 85%
    17:00 -1°C° 0 mm 6 mps 744 mmHg 88%
    18:00 -1°C° 0 mm 6 mps 744 mmHg 89%
    19:00 -1°C° 0 mm 6 mps 744 mmHg 90%
    20:00 -1°C° 0 mm 5 mps 744 mmHg 91%
    21:00 -2°C° 0 mm 6 mps 743 mmHg 91%
    22:00 -2°C° 0 mm 6 mps 743 mmHg 90%
    23:00 -2°C° 0 mm 6 mps 743 mmHg 90%

    Tomorrow, 13 December, Friday

    Time Temperature Precipitation Wind Pressure Humidity
    00:00 -2°C° 0 mm 6 mps 743 mmHg 90%
    01:00 -2°C° 0 mm 6 mps 742 mmHg 90%
    02:00 -3°C° 0 mm 7 mps 742 mmHg 91%
    03:00 -2°C° 0 mm 7 mps 742 mmHg 89%
    04:00 -2°C° 0 mm 7 mps 741 mmHg 87%
    05:00 -2°C° 0 mm 7 mps 741 mmHg 86%
    06:00 -2°C° 0 mm 7 mps 741 mmHg 86%
    07:00 -2°C° 0 mm 7 mps 741 mmHg 87%
    08:00 -2°C° 0 mm 8 mps 741 mmHg 88%
    09:00 -2°C° 0 mm 8 mps 741 mmHg 83%
    10:00 -1°C° 0 mm 8 mps 741 mmHg 79%
    11:00 -1°C° 0 mm 9 mps 740 mmHg 75%
    12:00 0°C° 0 mm 8 mps 740 mmHg 74%
    13:00 0°C° 0 mm 8 mps 740 mmHg 73%
    14:00 0°C° 0 mm 8 mps 740 mmHg 72%
    15:00 0°C° 0 mm 8 mps 740 mmHg 74%
    16:00 -1°C° 0 mm 8 mps 740 mmHg 76%
    17:00 -1°C° 0 mm 9 mps 740 mmHg 78%
    18:00 -1°C° 0 mm 8 mps 740 mmHg 78%
    19:00 -1°C° 0 mm 8 mps 740 mmHg 79%
    20:00 0°C° 0 mm 8 mps 740 mmHg 79%
    21:00 -1°C° 0 mm 8 mps 739 mmHg 81%
    22:00 -1°C° 0 mm 8 mps 739 mmHg 83%
    23:00 -1°C° 0 mm 8 mps 739 mmHg 85%

    Day after tomorrow, 14 December, Saturday

    Time Temperature Precipitation Wind Pressure Humidity
    00:00 -1°C° 0.2 mm 8 mps 739 mmHg 86%
    01:00 -1°C° 0.2 mm 8 mps 739 mmHg 87%
    02:00 -1°C° 0.2 mm 8 mps 739 mmHg 88%
    03:00 -1°C° 0.3 mm 8 mps 738 mmHg 89%
    04:00 -1°C° 0.3 mm 8 mps 738 mmHg 90%
    05:00 0°C° 0.3 mm 8 mps 738 mmHg 90%
    06:00 0°C° 0 mm 7 mps 739 mmHg 88%
    07:00 0°C° 0 mm 7 mps 739 mmHg 86%
    08:00 +2°C° 0 mm 7 mps 740 mmHg 84%
    09:00 +2°C° 0 mm 7 mps 740 mmHg 81%
    10:00 +3°C° 0 mm 7 mps 740 mmHg 77%
    11:00 +3°C° 0 mm 7 mps 740 mmHg 73%
    12:00 +4°C° 0 mm 6 mps 740 mmHg 72%
    13:00 +4°C° 0 mm 6 mps 740 mmHg 71%
    14:00 +4°C° 0 mm 6 mps 740 mmHg 69%
    15:00 +4°C° 0.5 mm 6 mps 740 mmHg 75%
    16:00 +4°C° 0.5 mm 7 mps 740 mmHg 80%
    17:00 +4°C° 0.5 mm 7 mps 740 mmHg 85%
    18:00 +4°C° 0.1 mm 7 mps 740 mmHg 86%
    19:00 +4°C° 0.1 mm 7 mps 741 mmHg 86%
    20:00 +4°C° 0.1 mm 7 mps 741 mmHg 87%
    21:00 +4°C° 0 mm 6 mps 741 mmHg 88%
    22:00 +3°C° 0 mm 6 mps 741 mmHg 89%
    23:00 +3°C° 0 mm 5 mps 741 mmHg 90%

    15 December, Sunday

    Time Temperature Precipitation Wind Pressure Humidity
    00:00 +4°C° 0 mm 4 mps 741 mmHg 91%
    01:00 +3°C° 0 mm 4 mps 742 mmHg 91%
    02:00 +3°C° 0 mm 4 mps 742 mmHg 91%
    03:00 +3°C° 0 mm 3 mps 742 mmHg 91%
    04:00 +3°C° 0 mm 3 mps 742 mmHg 92%
    05:00 +2°C° 0 mm 3 mps 742 mmHg 93%
    06:00 +2°C° 0 mm 3 mps 743 mmHg 94%
    07:00 +2°C° 0 mm 3 mps 743 mmHg 94%
    08:00 +2°C° 0 mm 3 mps 743 mmHg 95%
    09:00 +3°C° 0 mm 3 mps 743 mmHg 91%
    10:00 +4°C° 0 mm 3 mps 743 mmHg 87%
    11:00 +5°C° 0 mm 3 mps 743 mmHg 82%
    12:00 +5°C° 0 mm 3 mps 743 mmHg 80%
    13:00 +7°C° 0 mm 3 mps 743 mmHg 79%
    14:00 +7°C° 0 mm 2 mps 743 mmHg 77%
    15:00 +7°C° 0 mm 2 mps 744 mmHg 79%
    16:00 +6°C° 0 mm 2 mps 744 mmHg 81%
    17:00 +6°C° 0 mm 1 mps 744 mmHg 83%
    18:00 +7°C° 0.1 mm 1 mps 744 mmHg 84%
    19:00 +6°C° 0.1 mm 2 mps 745 mmHg 84%
    20:00 +6°C° 0.1 mm 2 mps 745 mmHg 84%
    21:00 +6°C° 0.1 mm 2 mps 745 mmHg 86%
    22:00 +7°C° 0.1 mm 1 mps 746 mmHg 87%
    23:00 +7°C° 0.1 mm 1 mps 746 mmHg 89%

    16 December, Monday

    Time Temperature Precipitation Wind Pressure Humidity
    00:00 +6°C° 0 mm 2 mps 746 mmHg 91%
    01:00 +6°C° 0 mm 2 mps 747 mmHg 93%
    02:00 +5°C° 0 mm 3 mps 747 mmHg 95%
    03:00 +4°C° 0 mm 3 mps 747 mmHg 94%
    04:00 +4°C° 0 mm 3 mps 748 mmHg 94%
    05:00 +3°C° 0 mm 3 mps 748 mmHg 93%
    06:00 +3°C° 0 mm 3 mps 748 mmHg 92%
    07:00 +2°C° 0 mm 3 mps 749 mmHg 91%
    08:00 +2°C° 0 mm 3 mps 749 mmHg 90%
    09:00 +3°C° 0 mm 3 mps 750 mmHg 85%
    10:00 +4°C° 0 mm 2 mps 750 mmHg 79%
    11:00 +5°C° 0 mm 2 mps 750 mmHg 74%
    12:00 +6°C° 0 mm 2 mps 750 mmHg 71%
    13:00 +6°C° 0 mm 2 mps 750 mmHg 69%
    14:00 +6°C° 0 mm 2 mps 750 mmHg 66%
    15:00 +6°C° 0 mm 2 mps 750 mmHg 69%
    16:00 +6°C° 0 mm 1 mps 751 mmHg 73%
    17:00 +5°C° 0 mm 1 mps 751 mmHg 76%
    18:00 +5°C° 0 mm 1 mps 751 mmHg 78%
    19:00 +4°C° 0 mm 1 mps 751 mmHg 79%
    20:00 +4°C° 0 mm 1 mps 751 mmHg 80%
    21:00 +4°C° 0 mm 1 mps 752 mmHg 80%
    22:00 +4°C° 0 mm 1 mps 752 mmHg 80%
    23:00 +4°C° 0 mm 1 mps 752 mmHg 81%

    17 December, Tuesday

    Time Temperature Precipitation Wind Pressure Humidity
    00:00 +3°C° 0 mm 1 mps 752 mmHg 82%
    01:00 +3°C° 0 mm 1 mps 752 mmHg 83%
    02:00 +3°C° 0 mm 1 mps 751 mmHg 84%
    03:00 +3°C° 0 mm 1 mps 751 mmHg 85%
    04:00 +3°C° 0 mm 1 mps 751 mmHg 87%
    05:00 +3°C° 0 mm 1 mps 751 mmHg 89%
    06:00 +3°C° 0 mm 1 mps 751 mmHg 91%
    07:00 +3°C° 0 mm 1 mps 752 mmHg 92%
    08:00 +3°C° 0 mm 1 mps 752 mmHg 94%
    09:00 +4°C° 0 mm 1 mps 752 mmHg 92%
    10:00 +4°C° 0 mm 2 mps 752 mmHg 91%
    11:00 +5°C° 0 mm 2 mps 752 mmHg 89%
    12:00 +6°C° 0 mm 2 mps 752 mmHg 88%
    13:00 +6°C° 0 mm 2 mps 751 mmHg 87%
    14:00 +6°C° 0 mm 2 mps 751 mmHg 87%
    15:00 +5°C° 0 mm 2 mps 751 mmHg 89%
    16:00 +5°C° 0 mm 2 mps 751 mmHg 92%
    17:00 +5°C° 0 mm 1 mps 751 mmHg 94%
    18:00 +4°C° 0 mm 2 mps 751 mmHg 94%
    19:00 +4°C° 0 mm 2 mps 751 mmHg 94%
    20:00 +3°C° 0 mm 2 mps 751 mmHg 95%
    21:00 +3°C° 0 mm 2 mps 751 mmHg 94%
    22:00 +3°C° 0 mm 2 mps 751 mmHg 94%
    23:00 +3°C° 0 mm 2 mps 751 mmHg 94%
    Show more